DW9151 Weather Reports


Display with metric or nautical units.
time (UTC)temp
F
wind
direction
speed
MPH
gust
MPH
rain 1hr
in
rain 24hr
in
rain mn
in
humidity
%
barometer
mb
20260504035123 44 12 3.0 6.0 0.00 0.00 0.00 70 1017.3
20260504034622 44 14 3.0 7.0 0.00 0.00 0.00 69 1017.3
20260504034123 44 22 3.0 8.0 0.00 0.00 0.00 69 1017.4
20260504033623 44 18 3.0 7.0 0.00 0.00 0.00 69 1017.4
20260504033123 44 19 2.0 5.0 0.00 0.00 0.00 69 1017.5
20260504032623 44 15 3.0 6.0 0.00 0.00 0.00 70 1017.4
20260504031622 44 20 3.0 7.0 0.00 0.00 0.00 70 1017.4
20260504031123 44 11 3.0 7.0 0.00 0.00 0.00 69 1017.5
20260504030623 44 14 3.0 9.0 0.00 0.00 0.00 69 1017.5
20260504030123 44 14 3.0 7.0 0.00 0.00 0.00 69 1017.4
20260504025623 44 17 3.0 8.0 0.00 0.00 0.00 70 1017.5
20260504024623 44 12 3.0 9.0 0.00 0.00 0.00 70 1017.6
20260504023623 45 16 3.0 6.0 0.00 0.00 0.00 70 1017.7
20260504022623 45 17 2.0 5.0 0.00 0.00 0.00 71 1017.7
20260504022123 45 13 3.0 8.0 0.00 0.00 0.00 71 1017.7
20260504021623 44 14 3.0 8.0 0.00 0.00 0.00 71 1017.8
20260504021123 44 21 5.0 9.0 0.00 0.00 0.00 71 1017.8
20260504020622 44 19 3.0 8.0 0.00 0.00 0.00 71 1017.7
20260504020123 45 16 5.0 8.0 0.00 0.00 0.00 71 1017.7
20260504015623 45 19 5.0 9.0 0.00 0.00 0.00 71 1017.7
20260504015123 45 20 5.0 8.0 0.00 0.00 0.00 71 1017.7
20260504014623 45 21 4.0 10.0 0.00 0.00 0.00 71 1017.7
20260504013622 45 15 5.0 8.0 0.00 0.00 0.00 71 1017.8
20260504012623 45 20 5.0 9.0 0.00 0.00 0.00 71 1017.8
20260504012123 45 17 5.0 10.0 0.00 0.00 0.00 71 1017.8
20260504011122 45 18 5.0 12.0 0.00 0.00 0.00 70 1017.8
20260504010623 45 19 5.0 12.0 0.00 0.00 0.00 70 1017.8
20260504010123 45 14 5.0 13.0 0.00 0.00 0.00 70 1017.8
20260504005623 45 10 5.0 12.0 0.00 0.00 0.00 69 1017.9
20260504005123 45 14 4.0 10.0 0.00 0.00 0.00 69 1017.9
20260504004623 45 15 6.0 12.0 0.00 0.00 0.00 69 1017.9
20260504004122 45 17 6.0 12.0 0.00 0.00 0.00 69 1018.0
20260504003623 45 11 6.0 12.0 0.00 0.00 0.00 69 1018.0
20260504003123 45 15 5.0 9.0 0.00 0.00 0.00 69 1018.1
20260504002623 45 18 5.0 10.0 0.00 0.00 0.00 69 1018.1
20260504002122 45 11 5.0 12.0 0.00 0.00 0.00 69 1018.1
20260504001123 45 15 5.0 9.0 0.00 0.00 0.00 68 1018.2
20260504000622 45 19 5.0 10.0 0.00 0.00 0.00 68 1018.2
20260504000122 45 9 5.0 7.0 0.00 0.00 0.00 68 1018.2
20260503235623 45 12 5.0 7.0 0.00 0.00 0.00 68 1018.2
20260503235123 45 11 4.0 9.0 0.00 0.00 0.00 68 1018.2
20260503234622 45 11 5.0 12.0 0.00 0.00 0.00 68 1018.2
20260503234123 45 10 4.0 9.0 0.00 0.00 0.00 68 1018.3
20260503233123 45 12 5.0 7.0 0.00 0.00 0.00 68 1018.4
20260503232623 45 10 4.0 7.0 0.00 0.00 0.00 68 1018.3
20260503232122 45 13 5.0 8.0 0.00 0.00 0.00 68 1018.4
20260503231623 45 15 5.0 9.0 0.00 0.00 0.00 68 1018.4
20260503230623 45 14 5.0 12.0 0.00 0.00 0.00 68 1018.4
20260503230123 45 16 4.0 7.0 0.00 0.00 0.00 68 1018.5
20260503225623 45 11 4.0 8.0 0.00 0.00 0.00 68 1018.5
20260503224623 45 16 5.0 9.0 0.00 0.00 0.00 68 1018.5
20260503224122 45 14 5.0 13.0 0.00 0.00 0.00 68 1018.5
20260503223623 45 16 5.0 10.0 0.00 0.00 0.00 68 1018.5
20260503222623 45 11 5.0 9.0 0.00 0.00 0.00 68 1018.6
20260503222123 45 13 3.0 6.0 0.00 0.00 0.00 68 1018.6
20260503221623 45 13 4.0 7.0 0.00 0.00 0.00 67 1018.5
20260503221123 45 14 4.0 6.0 0.00 0.00 0.00 67 1018.5
20260503220622 45 12 3.0 7.0 0.00 0.00 0.00 67 1018.6
20260503220123 45 12 3.0 6.0 0.00 0.00 0.00 68 1018.5
20260503215623 45 12 5.0 7.0 0.00 0.00 0.00 68 1018.5
20260503215125 45 10 5.0 7.0 0.00 0.00 0.00 69 1018.5
20260503214622 45 11 5.0 7.0 0.00 0.00 0.00 71 1018.5
20260503213622 44 15 6.0 12.0 0.00 0.00 0.00 74 1018.5
20260503212623 45 15 6.0 13.0 0.00 0.00 0.00 72 1018.5
20260503212123 45 13 5.0 10.0 0.00 0.00 0.00 72 1018.5
20260503211623 45 16 5.0 10.0 0.00 0.00 0.00 71 1018.5
20260503211122 45 14 4.0 10.0 0.00 0.00 0.00 70 1018.4
20260503210622 45 16 5.0 9.0 0.00 0.00 0.00 70 1018.4
20260503210123 45 15 6.0 12.0 0.00 0.00 0.00 70 1018.4
20260503205622 45 16 6.0 13.0 0.00 0.00 0.00 72 1018.4
20260503204622 45 15 7.0 14.0 0.00 0.00 0.00 72 1018.3
20260503204122 45 17 9.0 17.0 0.00 0.00 0.00 72 1018.3
20260503203623 45 19 6.0 10.0 0.00 0.00 0.00 72 1018.3
20260503203122 45 14 5.0 12.0 0.00 0.00 0.00 72 1018.3
20260503202623 45 15 7.0 13.0 0.00 0.00 0.00 72 1018.4
20260503202122 46 15 7.0 13.0 0.00 0.00 0.00 71 1018.4
20260503201122 45 15 6.0 12.0 0.00 0.00 0.00 72 1018.4
20260503200622 45 13 6.0 10.0 0.00 0.00 0.00 71 1018.3
20260503200122 45 13 5.0 10.0 0.00 0.00 0.00 71 1018.4
20260503195622 45 15 7.0 14.0 0.00 0.00 0.00 72 1018.4
20260503195122 46 17 7.0 13.0 0.00 0.00 0.00 72 1018.4
20260503194122 46 10 6.0 10.0 0.00 0.00 0.00 71 1018.4
20260503193623 46 13 5.0 12.0 0.00 0.00 0.00 71 1018.4
20260503193123 46 12 5.0 10.0 0.00 0.00 0.00 70 1018.4
20260503192622 46 12 5.0 9.0 0.00 0.00 0.00 70 1018.4
20260503192122 46 14 5.0 8.0 0.00 0.00 0.00 70 1018.3
20260503191622 46 15 5.0 10.0 0.00 0.00 0.00 69 1018.3
20260503191122 46 12 5.0 9.0 0.00 0.00 0.00 69 1018.3
20260503190622 46 10 5.0 9.0 0.00 0.00 0.00 69 1018.2
20260503190122 46 13 3.0 7.0 0.00 0.00 0.00 69 1018.1
20260503185622 46 14 3.0 8.0 0.00 0.00 0.00 69 1018.1
20260503185123 46 13 3.0 6.0 0.00 0.00 0.00 69 1018.0
20260503183623 46 14 3.0 5.0 0.00 0.00 0.00 70 1017.8
20260503183122 46 15 3.0 6.0 0.00 0.00 0.00 69 1017.8
20260503182622 46 14 3.0 7.0 0.00 0.00 0.00 69 1017.7
20260503182122 46 12 3.0 6.0 0.00 0.00 0.00 69 1017.6
20260503181622 46 11 3.0 5.0 0.00 0.00 0.00 69 1017.6
20260503181122 46 10 5.0 7.0 0.00 0.00 0.00 69 1017.7
20260503180622 46 12 4.0 6.0 0.00 0.00 0.00 69 1017.8
20260503180122 46 13 3.0 5.0 0.00 0.00 0.00 69 1017.7
20260503175622 46 12 3.0 7.0 0.00 0.00 0.00 69 1017.7
20260503174622 47 12 3.0 6.0 0.00 0.00 0.00 68 1017.7
20260503174122 47 13 3.0 6.0 0.00 0.00 0.00 68 1017.7
20260503173622 47 16 3.0 8.0 0.00 0.00 0.00 69 1017.7
20260503173122 47 19 3.0 6.0 0.00 0.00 0.00 72 1017.8
20260503172622 47 19 1.0 5.0 0.00 0.00 0.00 72 1017.7
20260503171622 47 3 3.0 5.0 0.00 0.00 0.00 69 1017.7
20260503171123 47 9 3.0 6.0 0.00 0.00 0.00 67 1017.8
20260503170122 47 18 2.0 5.0 0.00 0.00 0.00 70 1017.9
20260503150622 49 15 5.0 9.0 0.00 0.00 0.00 69 1018.8
20260503140122 52 15 2.0 6.0 0.00 0.00 0.00 66 1018.9
20260503131122 51 15 6.0 10.0 0.00 0.00 0.00 67 1019.1
20260503130622 51 16 4.0 9.0 0.00 0.00 0.00 67 1019.2
20260503130122 52 16 5.0 9.0 0.00 0.00 0.00 68 1019.2
20260503120121 52 15 7.0 10.0 0.00 0.00 0.00 64 1019.2
20260503110122 51 16 5.0 9.0 0.00 0.00 0.00 72 1019.2
20260503100122 53 16 3.0 7.0 0.00 0.00 0.00 68 1019.4
20260503090122 52 17 3.0 6.0 0.00 0.00 0.00 69 1019.6
20260503081621 54 19 2.0 3.0 0.00 0.00 0.00 60 1020.0
20260503081121 54 17 2.0 3.0 0.00 0.00 0.00 56 1020.0
20260503080622 53 17 2.0 7.0 0.00 0.00 0.00 60 1020.2
20260503080122 54 19 3.0 6.0 0.00 0.00 0.00 40 1020.2
20260503072622 53 17 2.0 5.0 0.00 0.00 0.00 37 1020.4
20260503071621 52 16 2.0 6.0 0.00 0.00 0.00 38 1020.3
20260503071121 52 17 3.0 5.0 0.00 0.00 0.00 36 1020.4
20260503070621 51 18 3.0 6.0 0.00 0.00 0.00 44 1020.3
20260503070122 51 14 3.0 6.0 0.00 0.00 0.00 45 1020.4
20260503060122 50 18 3.0 5.0 0.00 0.00 0.00 36 1020.3
20260503055122 51 19 2.0 3.0 0.00 0.00 0.00 33 1020.3
20260503054621 52 17 2.0 5.0 0.00 0.00 0.00 32 1020.3
20260503054121 52 15 2.0 3.0 0.00 0.00 0.00 32 1020.3
20260503053621 52 21 1.0 3.0 0.00 0.00 0.00 33 1020.3
20260503053121 51 19 2.0 3.0 0.00 0.00 0.00 32 1020.3
20260503052621 51 22 2.0 5.0 0.00 0.00 0.00 33 1020.3
20260503052121 51 22 1.0 3.0 0.00 0.00 0.00 33 1020.3
20260503051622 50 16 2.0 3.0 0.00 0.00 0.00 33 1020.3
20260503051121 50 17 3.0 5.0 0.00 0.00 0.00 34 1020.4
20260503050621 50 19 2.0 3.0 0.00 0.00 0.00 34 1020.4
20260503050121 49 20 2.0 5.0 0.00 0.00 0.00 35 1020.4
20260503045621 48 17 2.0 5.0 0.00 0.00 0.00 36 1020.5
20260503045122 48 17 2.0 3.0 0.00 0.00 0.00 36 1020.6
20260503044121 47 17 1.0 3.0 0.00 0.00 0.00 38 1020.6
20260503043621 47 17 2.0 3.0 0.00 0.00 0.00 39 1020.6
20260503043121 46 13 2.0 5.0 0.00 0.00 0.00 39 1020.7
20260503042621 46 18 2.0 3.0 0.00 0.00 0.00 40 1020.7
20260503042121 45 20 2.0 3.0 0.00 0.00 0.00 40 1020.7
20260503041621 45 20 2.0 5.0 0.00 0.00 0.00 40 1020.7
20260503041121 45 18 2.0 3.0 0.00 0.00 0.00 39 1020.6
20260503040622 45 20 2.0 5.0 0.00 0.00 0.00 39 1020.6
20260503040121 45 17 2.0 6.0 0.00 0.00 0.00 39 1020.6
20260503035621 45 17 2.0 5.0 0.00 0.00 0.00 38 1020.7